Regional Weather Roundup
Issued by NWS

Home | Current Version | Previous Version | Text Only | Print | Product List | Glossary On
Versions: 1 2 3 4 5 6 7 8 9 10 11 12 13 14 15 16 17 18 19 20 21 22 23 24 25 26 27 28 29 30 31 32 33 34 35 36 37 38 39 40 41 42 43 44 45 46 47 48 49 50
000
ASUS43 KOAX 300510
RWRNE

WEATHER ROUNDUP FOR NEBRASKA
NATIONAL WEATHER SERVICE OMAHA NE
1200 AM CDT TUE JUN 30 2015

NOTES: SATELLITE DATA IS BEING USED TO AUGMENT CLOUD COVER ABOVE
       12000 FEET.
       "FAIR" INDICATES FEW OR NO CLOUDS BELOW 12,000 FEET WITH NO
       SIGNIFICANT WEATHER AND/OR OBSTRUCTIONS TO VISIBILITY.

  * THESE STATIONS DO NOT REPORT WEATHER SUCH AS RAIN...SNOW OR FOG.

NEZ001>004-019>022-054>056-300600-
NEBRASKA PANHANDLE

CITY           SKY/WX    TMP DP  RH WIND       PRES   REMARKS
SCOTTSBLUFF    CLEAR     68  57  68 E7        30.12S
ALLIANCE       PTCLDY    61  58  90 W3        30.11R
CHADRON        PTCLDY    64  60  87 SW7       30.07R
KIMBALL          N/A    N/A N/A N/A MISG        N/A
SIDNEY           N/A     64  59  83 CALM      30.15S
$$

NEZ057>060-069>072-079>082-300600-
SOUTHWEST NEBRASKA

CITY           SKY/WX    TMP DP  RH WIND       PRES   REMARKS
NORTH PLATTE   CLEAR     69  62  78 CALM      30.05R
IMPERIAL       CLEAR     69  58  67 W3        30.07S
LEXINGTON      CLEAR     70  64  81 CALM      30.02F
MCCOOK         CLEAR     75  59  57 S3        30.03R
OGALLALA       CLEAR     65  59  79 CALM      30.07S
$$

NEZ005>010-023>029-035>040-094-300600-
NORTH CENTRAL NEBRASKA

CITY           SKY/WX    TMP DP  RH WIND       PRES   REMARKS
VALENTINE      CLEAR     65  61  87 SW7       30.02R
AINSWORTH      CLEAR     71  61  71 SW7       30.02S
BROKEN BOW     CLEAR     65  61  87 CALM      30.02S
O`NEILL        CLEAR     69  63  79 SW5       29.98S
ORD            CLEAR     64  59  83 CALM      29.98S
THEDFORD       CLEAR     69  61  76 CALM      30.06R
$$

NEZ041-046>049-061>064-073>077-083>087-300600-
SOUTH CENTRAL NEBRASKA

CITY           SKY/WX    TMP DP  RH WIND       PRES   REMARKS
GRAND ISLAND   CLEAR     70  62  76 SE5       29.99S
AURORA         CLEAR     72  62  68 S3        29.98F
HASTINGS       CLEAR     71  62  73 CALM      29.99S
HEBRON         CLEAR     68  63  83 CALM      29.97F
HOLDREGE       CLEAR     73  61  67 S5        30.01F
KEARNEY *      CLEAR     73  61  64 W3        30.00S
YORK           PTCLDY    68  63  83 CALM      29.97F
$$

NEZ011>018-030>034-042>045-300600-
NORTHEAST NEBRASKA

CITY           SKY/WX    TMP DP  RH WIND       PRES   REMARKS
NORFOLK        CLEAR     66  63  90 SW5       29.95S FOG
ALBION         CLEAR     64  59  82 CALM      29.98R
BLAIR          CLEAR     71  60  69 CALM      29.93S
COLUMBUS *     PTCLDY    64  57  77 NW3       29.96R
FREMONT        PTCLDY    71  63  76 CALM      29.94R
TEKAMAH        PTCLDY    67  61  81 SW3       29.92R
WAYNE          CLEAR     64  62  93 S3        29.95R
$$

NEZ050>053-065>068-078-088>093-300600-
SOUTHEAST NEBRASKA

CITY           SKY/WX    TMP DP  RH WIND       PRES   REMARKS
LINCOLN        CLEAR     73  64  73 W3        29.95S
OMAHA EPPLEY   CLOUDY    71  64  78 CALM      29.91F
BEATRICE       CLEAR     69  65  88 CALM      29.96S
FALLS CITY     CLEAR     72  65  78 CALM      29.93S
NEBRASKA CITY  CLEAR     73  57  59 CALM      29.93F
PLATTSMOUTH    CLOUDY    72  59  64 SW3       29.93S
$$

NEZ044-045-051>053-067-300600-
OMAHA AREA

CITY           SKY/WX    TMP DP  RH WIND       PRES   REMARKS
OMAHA EPPLEY   CLOUDY    71  64  78 CALM      29.91F
BLAIR          CLEAR     71  60  69 CALM      29.93S
FREMONT        PTCLDY    71  63  76 CALM      29.94R
MILLARD        CLEAR     69  64  84 CALM      29.92S
OFFUTT AFB     CLEAR     64  62  94 CALM      29.91S
PLATTSMOUTH    CLOUDY    72  59  64 SW3       29.93S
WAHOO          FAIR      71  65  79 W3        29.93F
$$


USA.gov is the U.S. government's official web portal to all federal, state and local government web resources and services.